CZ-6A DEB, 61479

Orbit data source: Space-Track

CZ-6A DEB, 61479 is space debris in LEO originally from a launch on Tue, 06 Aug 2024 UTC launched from the Taiyaun Space Center, China (TSC). Debris objects in space refer to the collection of defunct objects orbiting the Earth. Examples of debris include non-operational satellites, rocket bodies, and fragments generated from explosions, collisions, or faulty payload assembly.

Loading next visibility...
Identifier
61479, 2024-140AAM
Orbit
LEO
Country
Flag of CNCN / PRC
Related business
Manufacturer
SAST
Mission
Spacecraft
Bus & Motor
Unknown
Mass
Unknown
Launch date (UTC)
2024-08-06 (2 years ago)
Launch vehicle
Unknown
Launch site
Taiyaun Space Center, China (TSC)
Object type
Payload
Rocket body
Debris
Shape & HBR
Unknown shape, 0.1 m
Radar Cross Section
Medium (>0.1 m² and <1 m²)

Expand to show TLE details & history
Last TLE update: 14 hours ago

TLE from 14 hours ago
0 CZ-6A DEB
1 61479U 24140AAM 26171.27647289  .00001200  00000-0  66868-3 0  9990
2 61479  89.0583 281.1588 0164261 191.1086 168.6453 14.03810470 93644
Epoch: 2026-06-20T06:38Z
TLE epoch observation values (Epoch: 2026-06-20T06:38:07.257Z)
Latitude
-0.00006°
Longitude
-86.86485°
Altitude
1,000.659 km
Speed
7.292 km/s
True Right ascension
18h 44m 38s
True Declination
0° 00' 00"
Sunlit
Object was in full shadow at epoch
Visualization orbit readout
Latitude
Unknown
Longitude
Unknown
Altitude
Unknown
Speed
Unknown
Apparent Right ascension
Unknown
Apparent Declination
Unknown
Sunlit
N/A
Visualization observer readout
Local Sidereal Time
07:19:47
Azimuth
Unknown
Elevation
Unknown
Doppler factor
Unknown
Orbital elements
Apogee altitude
996.786 km
Perigee altitude
758.419 km
Semi-major axis
7,255.74 km
Eccentricity
0.01643
Inclination
89.0583°
RAAN
281.1588°
Arg. of periapsis
191.1086°
True anomaly
169.00857°
Mean anomaly
168.6453°
Eccentric anomaly
168.82766°
Mean motion
3.51173 °/min
Orbital period
102.51 mins
BSTAR
0.00066868
Loading maneuver chart data...
Computing Atmospheric mass density...
Loading historical data...
Loading historical data...
Loading historical data...
Loading historical data...
Loading historical data...
Loading historical data...
Loading historical data...

Documentation

Showing up to 5 results
|